(346514) = 2008 UD149

Discovered at Kitt Peak on 2008-10-23 by Spacewatch.

Orbit

Orbit type: Main Belt

Note: WebGL enabled browser required.

epoch2023-02-25.0
epoch JD2460000.5
perihelion date2021-03-01.49309
perihelion JD2459274.99309
argument of perihelion (°)326.24951
ascending node (°)40.57447
inclination (°)3.34036
eccentricity0.2981201
perihelion distance (AU)1.8295294
Tisserand w.r.t. Jupiter3.3
ΔV w.r.t. Earth (km/sec)8.6
semimajor axis (AU)2.6066130
mean anomaly (°)169.91455
mean daily motion (°/day)0.23420120
aphelion distance (AU)3.384
period (years)4.21
P-vector [x]0.99230191
P-vector [y]0.12254943
P-vector [z]0.01784822
Q-vector [x]-0.11790072
Q-vector [y]0.89072688
Q-vector [z]0.43898183
absolute magnitude17.04
phase slope0.15
uncertainty0
referenceMPO 745323
observations used265
oppositions12
arc length (days)11523
first opposition used1991
last opposition used2023
residual rms (arc-secs)0.75
perturbers coarse indicatorM-v
perturbers precise indicator003Ek
first observation date used1991-10-05.0
last observation date used2023-04-23.0
computer nameMPCLINUX
JD of orbit computation2456731.495030
perihelion JD uncertainty (days)5.6962E-05
argument of perihelion uncertainty (°)7.7055E-05
ascending node uncertainty (°)7.3337E-05
inclination uncertainty (°)8.8071E-06
eccentricity uncertainty 7.5832E-08
perihelion distance uncertainty (AU)1.9782E-07
Minimum Orbit Intersection Distances (in AU)
for orbit epoch: 2460000.5, reference: E2023-HH6
Mercury1.47214
Venus1.10375
Earth0.82785
Mars0.42494
Jupiter2.06803
Saturn6.12257
Uranus15.0883
Neptune27.3165

Observations

273 total observations over interval: 1991 10 05.32288 – 2023 04 23.334764
These data are available for download (format description).

Date (UT) J2000 RA J2000 Dec Magn Location Ref
1991 10 05.32288 00 53 38.67 +01 52 17.6 18.9 V 691 – Steward Observatory, Kitt Peak-Spacewatch MPS 270409
1991 10 05.34355 00 53 37.65 +01 52 15.7   691 – Steward Observatory, Kitt Peak-Spacewatch MPS 270409
1991 10 05.36407 00 53 36.62 +01 52 16.1   691 – Steward Observatory, Kitt Peak-Spacewatch MPS 270409
2006 03 03.33980 11 59 07.86 +03 51 28.6   691 – Steward Observatory, Kitt Peak-Spacewatch MPS 270409
2006 03 03.35714 11 59 06.99 +03 51 33.8   691 – Steward Observatory, Kitt Peak-Spacewatch MPS 270409
2006 03 03.37447 11 59 06.17 +03 51 38.6   691 – Steward Observatory, Kitt Peak-Spacewatch MPS 270409
2008 09 22.39249 04 10 17.40 +20 34 43.1 19.7 V G96 – Mt. Lemmon Survey MPS 267682
2008 09 22.39692 04 10 17.54 +20 34 43.6 19.4 V G96 – Mt. Lemmon Survey MPS 267682
2008 09 22.40417 04 10 17.90 +20 34 46.1 19.7 V G96 – Mt. Lemmon Survey MPS 267682
2008 09 22.40858 04 10 18.08 +20 34 46.9 19.4 V G96 – Mt. Lemmon Survey MPS 267682
2008 09 22.41587 04 10 18.40 +20 34 49.1 19.6 V G96 – Mt. Lemmon Survey MPS 267682
2008 09 22.42034 04 10 18.58 +20 34 49.9 19.6 V G96 – Mt. Lemmon Survey MPS 267682
2008 09 22.42760 04 10 18.91 +20 34 52.1 19.4 V G96 – Mt. Lemmon Survey MPS 267682
2008 09 22.43210 04 10 19.12 +20 34 52.9 19.3 V G96 – Mt. Lemmon Survey MPS 267682
2008 09 24.35404 04 11 42.86 +20 42 39.9 19.5   704 – Lincoln Laboratory ETS, New Mexico MPS 373502
2008 09 24.36609 04 11 43.43 +20 42 41.1 20.4   704 – Lincoln Laboratory ETS, New Mexico MPS 373502
2008 09 24.37813 04 11 44.02 +20 42 47.6 20.4   704 – Lincoln Laboratory ETS, New Mexico MPS 373502
2008 09 24.39019 04 11 44.32 +20 42 48.7 19.8   704 – Lincoln Laboratory ETS, New Mexico MPS 373502
2008 09 24.40224 04 11 44.80 +20 42 53.8 20.2   704 – Lincoln Laboratory ETS, New Mexico MPS 373502
2008 10 03.41925 04 16 26.36 +21 15 45.0 19.1 V G96 – Mt. Lemmon Survey MPS 267682
2008 10 03.42468 04 16 26.43 +21 15 46.0 19.1 V G96 – Mt. Lemmon Survey MPS 267682
2008 10 03.43009 04 16 26.54 +21 15 47.2 19.1 V G96 – Mt. Lemmon Survey MPS 267682
2008 10 03.43572 04 16 26.65 +21 15 48.3 19.2 V G96 – Mt. Lemmon Survey MPS 267682
2008 10 23.36916 04 15 11.64 +22 06 27.0 19.7 V 691 – Steward Observatory, Kitt Peak-Spacewatch MPS 263513
2008 10 23.38684 04 15 11.08 +22 06 27.7 19.3 V 691 – Steward Observatory, Kitt Peak-Spacewatch MPS 263513
2008 10 23.40453 04 15 10.53 +22 06 30.9 19.4 V 691 – Steward Observatory, Kitt Peak-Spacewatch MPS 263513
2008 10 27.34049 04 13 02.21 +22 12 31.7 19.3 V 691 – Steward Observatory, Kitt Peak-Spacewatch MPS 263513
2008 10 27.35821 04 13 01.50 +22 12 33.1 19.3 V 691 – Steward Observatory, Kitt Peak-Spacewatch MPS 263513
2008 10 27.37594 04 13 00.76 +22 12 34.7 19.3 V 691 – Steward Observatory, Kitt Peak-Spacewatch MPS 263513
2008 10 28.30887 04 12 25.45 +22 13 48.5 19.2   704 – Lincoln Laboratory ETS, New Mexico MPS 313506
2008 10 28.32033 04 12 24.95 +22 13 48.2 19.4   704 – Lincoln Laboratory ETS, New Mexico MPS 313506
2008 10 28.33179 04 12 24.50 +22 13 48.5 19.3   704 – Lincoln Laboratory ETS, New Mexico MPS 313506
2008 10 28.34328 04 12 24.04 +22 13 50.8 19.5   704 – Lincoln Laboratory ETS, New Mexico MPS 313506
2008 10 28.35481 04 12 23.52 +22 13 50.2 19.7   704 – Lincoln Laboratory ETS, New Mexico MPS 313506
2008 10 31.28971 04 10 20.25 +22 17 05.2   691 – Steward Observatory, Kitt Peak-Spacewatch MPS 263513
2008 10 31.30743 04 10 19.34 +22 17 06.1   691 – Steward Observatory, Kitt Peak-Spacewatch MPS 263513
2008 10 31.32516 04 10 18.50 +22 17 07.1   691 – Steward Observatory, Kitt Peak-Spacewatch MPS 263513
2008 11 01.31143 04 09 33.28 +22 18 01.2 19.2   704 – Lincoln Laboratory ETS, New Mexico MPS 313506
2008 11 01.32319 04 09 32.70 +22 18 01.3 19.7   704 – Lincoln Laboratory ETS, New Mexico MPS 313506
2008 11 01.33497 04 09 32.09 +22 18 02.0 19.5   704 – Lincoln Laboratory ETS, New Mexico MPS 313506
2008 11 01.34670 04 09 31.49 +22 18 02.5 19.4   704 – Lincoln Laboratory ETS, New Mexico MPS 313506
2008 11 01.35856 04 09 30.92 +22 18 03.7 19.5   704 – Lincoln Laboratory ETS, New Mexico MPS 313506
2008 11 08.32498 04 03 26.08 +22 21 41.6 18.9 V 691 – Steward Observatory, Kitt Peak-Spacewatch MPS 264709
2008 11 08.34265 04 03 25.02 +22 21 42.0 19.0 V 691 – Steward Observatory, Kitt Peak-Spacewatch MPS 264709
2008 11 08.36031 04 03 23.94 +22 21 42.2 18.9 V 691 – Steward Observatory, Kitt Peak-Spacewatch MPS 264709
2008 11 08.80729 04 02 58.06 +22 21 45.8 18.8 R D29 – Purple Mountain Observatory, XuYi Station MPS 264709
2008 11 08.82138 04 02 57.17 +22 21 45.9 19.0 R D29 – Purple Mountain Observatory, XuYi Station MPS 264709
2008 11 08.83482 04 02 56.37 +22 21 45.4 18.9 R D29 – Purple Mountain Observatory, XuYi Station MPS 264709
2008 11 08.85064 04 02 55.43 +22 21 45.8 19.1 R D29 – Purple Mountain Observatory, XuYi Station MPS 264709
2008 11 18.10352 03 53 29.86 +22 19 15.9 18.8 V J75 – OAM Observatory, La Sagra MPS 265359
2008 11 18.11641 03 53 29.03 +22 19 15.4 18.6 V J75 – OAM Observatory, La Sagra MPS 265359
2008 11 18.12931 03 53 28.20 +22 19 14.6 18.2 V J75 – OAM Observatory, La Sagra MPS 265359
2008 11 18.21712 03 53 23.28 +22 19 13.5 18.8 V 703 – Catalina Sky Survey MPS 265359
2008 11 18.22114 03 53 23.00 +22 19 12.5 19.0 V 691 – Steward Observatory, Kitt Peak-Spacewatch MPS 265359
2008 11 18.22396 03 53 22.81 +22 19 12.3 18.8 V 703 – Catalina Sky Survey MPS 265359
2008 11 18.23079 03 53 22.34 +22 19 13.0 18.6 V 703 – Catalina Sky Survey MPS 265359
2008 11 18.23757 03 53 21.91 +22 19 12.5 18.5 V 703 – Catalina Sky Survey MPS 265359
2008 11 18.23877 03 53 21.84 +22 19 12.0 19.0 V 691 – Steward Observatory, Kitt Peak-Spacewatch MPS 265359
2008 11 18.25640 03 53 20.67 +22 19 11.5 19.0 V 691 – Steward Observatory, Kitt Peak-Spacewatch MPS 265359
2008 11 20.27833 03 51 13.06 +22 17 43.6 18.6 V G96 – Mt. Lemmon Survey MPS 265359
2008 11 20.28390 03 51 12.70 +22 17 43.5 18.6 V G96 – Mt. Lemmon Survey MPS 265359
2008 11 20.28944 03 51 12.31 +22 17 43.1 18.5 V G96 – Mt. Lemmon Survey MPS 265359
2008 11 20.29522 03 51 11.95 +22 17 43.0 18.6 V G96 – Mt. Lemmon Survey MPS 265359
2008 11 20.32837 03 51 09.67 +22 17 40.8 18.7   704 – Lincoln Laboratory ETS, New Mexico MPS 265359
2008 11 20.34087 03 51 08.89 +22 17 40.1 18.7   704 – Lincoln Laboratory ETS, New Mexico MPS 265359
2008 11 20.35345 03 51 08.05 +22 17 39.5 18.9   704 – Lincoln Laboratory ETS, New Mexico MPS 265359
2008 11 20.36603 03 51 07.22 +22 17 38.6 18.7   704 – Lincoln Laboratory ETS, New Mexico MPS 265359
2008 11 20.37852 03 51 06.39 +22 17 38.0 18.7   704 – Lincoln Laboratory ETS, New Mexico MPS 265359
2008 11 25.24969 03 46 04.29 +22 13 09.0 19.1   704 – Lincoln Laboratory ETS, New Mexico MPS 266514
2008 11 25.26217 03 46 03.45 +22 13 08.2 19.4   704 – Lincoln Laboratory ETS, New Mexico MPS 266514
2008 11 25.27456 03 46 02.70 +22 13 07.8 19.1   704 – Lincoln Laboratory ETS, New Mexico MPS 266514
2008 11 25.28698 03 46 01.89 +22 13 06.3 19.1   704 – Lincoln Laboratory ETS, New Mexico MPS 266514
2008 11 25.29958 03 46 01.08 +22 13 04.9 19.2   704 – Lincoln Laboratory ETS, New Mexico MPS 266514
2008 12 01.12001 03 40 23.90 +22 06 34.5 19.0 V 691 – Steward Observatory, Kitt Peak-Spacewatch MPS 267682
2008 12 01.13764 03 40 22.91 +22 06 33.8 19.0 V 691 – Steward Observatory, Kitt Peak-Spacewatch MPS 267682
2008 12 01.15528 03 40 21.91 +22 06 32.6 19.1 V 691 – Steward Observatory, Kitt Peak-Spacewatch MPS 267682
2008 12 02.25032 03 39 22.50 +22 05 16.7 19.0   704 – Lincoln Laboratory ETS, New Mexico MPS 267682
2008 12 02.26300 03 39 21.80 +22 05 16.4 19.5   704 – Lincoln Laboratory ETS, New Mexico MPS 267682
2008 12 02.27556 03 39 21.10 +22 05 14.5 19.5   704 – Lincoln Laboratory ETS, New Mexico MPS 267682
2008 12 02.28812 03 39 20.41 +22 05 14.7 19.5   704 – Lincoln Laboratory ETS, New Mexico MPS 267682
2008 12 02.30082 03 39 19.68 +22 05 13.0 19.6   704 – Lincoln Laboratory ETS, New Mexico MPS 267682
2008 12 04.09196 03 37 47.34 +22 03 07.4 19.4 V 691 – Steward Observatory, Kitt Peak-Spacewatch MPS 267682
2008 12 04.10964 03 37 46.44 +22 03 07.3 19.2 V 691 – Steward Observatory, Kitt Peak-Spacewatch MPS 267682
